Torna al catalogo

STARLINK-34401

AttivoComunicazioniVLEO
NORAD 64757·PAYLOAD·🇺🇸 United States

Lanciato Jul 8, 2025 da Cape Canaveral Space Force Station

Loading…

Prossimi Passaggi (prossime 24 ore)

TLE

AggiornatoSource: CelesTrak SupGP

Epoca: Sep 15, 2026, 02:48 UTC

1 64757C 25147C   26258.11715278 -.00024778  00000+0 -73230-3 0  2588
2 64757  53.1572  78.9481 0001241  87.8351 121.7109 15.34393543    13

Traccia STARLINK-34401 in tempo reale con AllMySat

Download on the App Store